Location: Anciles
(42.5833°N, 0.5167°E)
Time: 16:45:01
(UTC+00:00)

Cosmos 2333 Rocket - Pass Details

Date: 10 December 2019
Orbit: 837 x 864 km, 70.8° (Epoch: 27 January)

Event Time Altitude Azimuth Distance (km) Brightness Sun altitude
Rises 17:27:49 0° 231° (SW) 3,411 6.9 -11.3°
Reaches altitude 10° 17:30:29 10° 240° (WSW) 2,483 6.1 -11.8°
Maximum altitude 17:35:38 34° 304° (NW) 1,390 3.7 -12.7°
Drops below altitude 10° 17:40:51 10° 9° (N) 2,510 4.4 -13.6°
Enters shadow 17:43:06 - 17° (NNE) 3,287 4.9 -14.0°
